Location: LDNL
(36.4545°S, 141.6685°E)
Time: 03:45:04
(UTC+10:00)

YUBILEINY - Visible Passes

Search period start: 17 May 2022 00:00
Search period end: 27 May 2022 00:00
Orbit: 1479 x 1508 km, 82.5° (Epoch: 16 May)

Date Brightness Start Highest point End Pass type
(mag) Time Alt. Az. Time Alt. Az. Time Alt. Az.
19 May ? 21:18:19 10° S 21:18:38 11° S 21:18:38 11° S visible
20 May ? 20:29:15 10° S 20:29:34 11° S 20:29:34 11° S visible
21 May ? 21:35:52 10° S 21:36:27 12° S 21:36:27 12° S visible
22 May ? 20:46:25 10° S 20:47:28 14° S 20:47:28 14° S visible
23 May ? 19:57:34 10° SSE 19:58:29 13° SSE 19:58:29 13° SSE visible
23 May ? 21:53:41 10° SSW 21:54:24 13° SSW 21:54:24 13° SSW visible
24 May ? 21:03:53 10° S 21:05:29 17° S 21:05:29 17° S visible
25 May ? 20:14:35 10° S 20:16:37 18° SSE 20:16:37 18° SSE visible
25 May ? 22:11:49 10° SSW 22:12:32 13° SSW 22:12:32 13° SSW visible
26 May ? 19:25:58 10° SSE 19:27:47 15° SSE 19:27:47 15° SSE visible
26 May ? 21:21:34 10° SSW 21:23:43 20° SSW 21:23:43 20° SSW visible
